| time (UTC) | temp F | wind direction | speed MPH | gust MPH | rain 1hr in | rain 24hr in | rain mn in | humidity % | barometer mb |
| 20260509062927 | 69 | 259 | 1.0 | 3.0 | 0.00 | 0.00 | 0.00 | 83 | 1008.6 |
| 20260509062424 | 69 | 236 | 1.0 | 3.0 | 0.00 | 0.00 | 0.00 | 83 | 1008.6 |
| 20260509061858 | 69 | 153 | 0.0 | 2.0 | 0.00 | 0.00 | 0.00 | 83 | 1008.5 |
| 20260509061342 | 69 | 127 | 0.0 | 0.0 | 0.00 | 0.00 | 0.00 | 82 | 1008.7 |
| 20260509060816 | 69 | 131 | 0.0 | 0.0 | 0.00 | 0.00 | 0.00 | 82 | 1009.1 |
| 20260509060520 | 69 | 131 | 0.0 | 2.0 | 0.00 | 0.00 | 0.00 | 81 | 1009.0 |
| 20260509055734 | 70 | 131 | 0.0 | 2.0 | 0.00 | 0.00 | 0.00 | 81 | 1009.0 |
| 20260509055501 | 70 | 343 | 0.0 | 2.0 | 0.00 | 0.00 | 0.00 | 81 | 1009.5 |
| 20260509054710 | 70 | 221 | 1.0 | 4.0 | 0.00 | 0.00 | 0.00 | 81 | 1009.4 |
| 20260509054153 | 70 | 231 | 1.0 | 4.0 | 0.00 | 0.00 | 0.00 | 81 | 1008.9 |
| 20260509053630 | 70 | 190 | 0.0 | 0.0 | 0.00 | 0.00 | 0.00 | 80 | 1009.4 |
| 20260509053106 | 70 | 326 | 0.0 | 3.0 | 0.00 | 0.00 | 0.00 | 80 | 1009.9 |
| 20260509052827 | 71 | 326 | 1.0 | 3.0 | 0.00 | 0.00 | 0.00 | 79 | 1010.1 |
| 20260509052105 | 71 | 25 | 1.0 | 3.0 | 0.00 | 0.00 | 0.00 | 79 | 1009.9 |
| 20260509051603 | 71 | 27 | 1.0 | 4.0 | 0.00 | 0.00 | 0.00 | 79 | 1009.6 |
| 20260509051102 | 71 | 273 | 2.0 | 5.0 | 0.00 | 0.00 | 0.00 | 79 | 1008.9 |
| 20260509050543 | 71 | 172 | 1.0 | 5.0 | 0.00 | 0.00 | 0.00 | 78 | 1008.6 |
| 20260509050039 | 71 | 235 | 1.0 | 4.0 | 0.00 | 0.00 | 0.00 | 78 | 1008.7 |
| 20260509045538 | 71 | 255 | 1.0 | 4.0 | 0.00 | 0.00 | 0.00 | 78 | 1008.8 |
| 20260509045005 | 71 | 250 | 3.0 | 8.0 | 0.00 | 0.00 | 0.00 | 78 | 1008.3 |
| 20260509044436 | 71 | 152 | 2.0 | 8.0 | 0.00 | 0.00 | 0.00 | 77 | 1008.1 |
| 20260509043935 | 71 | 226 | 1.0 | 4.0 | 0.00 | 0.00 | 0.00 | 78 | 1008.3 |
| 20260509043425 | 71 | 134 | 2.0 | 5.0 | 0.00 | 0.00 | 0.00 | 78 | 1008.3 |
| 20260509042922 | 71 | 112 | 2.0 | 6.0 | 0.00 | 0.00 | 0.00 | 78 | 1008.2 |
| 20260509042355 | 71 | 108 | 2.0 | 6.0 | 0.00 | 0.00 | 0.00 | 78 | 1008.1 |
| 20260509041853 | 71 | 120 | 1.0 | 4.0 | 0.00 | 0.00 | 0.00 | 77 | 1008.4 |
| 20260509041355 | 71 | 139 | 0.0 | 2.0 | 0.00 | 0.00 | 0.00 | 77 | 1008.9 |
| 20260509040838 | 72 | 112 | 0.0 | 0.0 | 0.00 | 0.00 | 0.00 | 77 | 1009.2 |
| 20260509040340 | 72 | 112 | 0.0 | 0.0 | 0.00 | 0.00 | 0.00 | 76 | 1009.4 |
| 20260509040056 | 72 | 112 | 0.0 | 0.0 | 0.00 | 0.00 | 0.00 | 76 | 1009.4 |
| 20260509035335 | 72 | 112 | 0.0 | 0.0 | 0.00 | 0.00 | 0.00 | 76 | 1009.4 |
| 20260509035028 | 72 | 112 | 0.0 | 0.0 | 0.00 | 0.00 | 0.00 | 76 | 1009.3 |
| 20260509034303 | 71 | 112 | 0.0 | 0.0 | 0.00 | 0.00 | 0.00 | 76 | 1009.2 |
| 20260509033800 | 71 | 112 | 0.0 | 0.0 | 0.00 | 0.00 | 0.00 | 76 | 1009.0 |
| 20260509033258 | 71 | 112 | 0.0 | 0.0 | 0.00 | 0.00 | 0.00 | 75 | 1008.9 |
| 20260509032949 | 72 | 112 | 0.0 | 1.0 | 0.00 | 0.00 | 0.00 | 75 | 1008.6 |
| 20260509032230 | 71 | 112 | 0.0 | 2.0 | 0.00 | 0.00 | 0.00 | 75 | 1008.5 |
| 20260509031716 | 71 | 257 | 0.0 | 2.0 | 0.00 | 0.00 | 0.00 | 75 | 1008.5 |
| 20260509031434 | 71 | 129 | 0.0 | 1.0 | 0.00 | 0.00 | 0.00 | 75 | 1008.6 |
| 20260509030902 | 71 | 129 | 0.0 | 1.0 | 0.00 | 0.00 | 0.00 | 75 | 1008.7 |
| 20260509030116 | 71 | 129 | 0.0 | 2.0 | 0.00 | 0.00 | 0.00 | 75 | 1008.6 |
| 20260509025610 | 71 | 145 | 0.0 | 2.0 | 0.00 | 0.00 | 0.00 | 74 | 1008.5 |
| 20260509025329 | 71 | 145 | 0.0 | 2.0 | 0.00 | 0.00 | 0.00 | 74 | 1008.3 |
| 20260509024604 | 72 | 187 | 1.0 | 3.0 | 0.00 | 0.00 | 0.00 | 74 | 1008.1 |
| 20260509024104 | 72 | 226 | 1.0 | 3.0 | 0.00 | 0.00 | 0.00 | 74 | 1007.9 |
| 20260509023550 | 72 | 161 | 1.0 | 5.0 | 0.00 | 0.00 | 0.00 | 74 | 1007.9 |
| 20260509023052 | 72 | 121 | 1.0 | 5.0 | 0.00 | 0.00 | 0.00 | 73 | 1008.0 |
| 20260509022528 | 72 | 302 | 1.0 | 4.0 | 0.00 | 0.00 | 0.00 | 73 | 1007.7 |
| 20260509022028 | 72 | 165 | 1.0 | 4.0 | 0.00 | 0.00 | 0.00 | 73 | 1007.6 |
| 20260509021455 | 72 | 129 | 1.0 | 5.0 | 0.00 | 0.00 | 0.00 | 73 | 1007.6 |
| 20260509020952 | 72 | 120 | 1.0 | 5.0 | 0.00 | 0.00 | 0.00 | 72 | 1007.7 |
| 20260509020449 | 72 | 159 | 1.0 | 4.0 | 0.00 | 0.00 | 0.00 | 72 | 1007.8 |
| 20260509020158 | 72 | 113 | 1.0 | 6.0 | 0.00 | 0.00 | 0.00 | 72 | 1007.8 |
| 20260509015709 | 72 | 165 | 2.0 | 6.0 | 0.00 | 0.00 | 0.00 | 72 | 1007.7 |
| 20260509014936 | 73 | 233 | 2.0 | 8.0 | 0.00 | 0.00 | 0.00 | 72 | 1007.6 |
| 20260509014436 | 73 | 232 | 2.0 | 6.0 | 0.00 | 0.00 | 0.00 | 72 | 1007.6 |
| 20260509013906 | 72 | 217 | 3.0 | 6.0 | 0.00 | 0.00 | 0.00 | 72 | 1007.6 |
| 20260509013402 | 72 | 239 | 2.0 | 6.0 | 0.00 | 0.00 | 0.00 | 72 | 1007.5 |
| 20260509012838 | 72 | 252 | 1.0 | 4.0 | 0.00 | 0.00 | 0.00 | 72 | 1007.4 |
| 20260509012330 | 72 | 213 | 0.0 | 2.0 | 0.00 | 0.00 | 0.00 | 73 | 1007.4 |
| 20260509011830 | 72 | 141 | 0.0 | 2.0 | 0.00 | 0.00 | 0.00 | 72 | 1007.3 |
| 20260509011300 | 72 | 144 | 0.0 | 2.0 | 0.00 | 0.00 | 0.00 | 72 | 1007.2 |
| 20260509010759 | 72 | 107 | 1.0 | 3.0 | 0.00 | 0.00 | 0.00 | 72 | 1007.2 |
| 20260509010515 | 72 | 264 | 1.0 | 3.0 | 0.00 | 0.00 | 0.00 | 72 | 1007.1 |
| 20260509005754 | 72 | 214 | 1.0 | 4.0 | 0.00 | 0.00 | 0.00 | 71 | 1007.0 |
| 20260509005224 | 72 | 155 | 2.0 | 4.0 | 0.00 | 0.00 | 0.00 | 71 | 1007.0 |
| 20260509004945 | 72 | 257 | 2.0 | 6.0 | 0.00 | 0.00 | 0.00 | 71 | 1007.0 |
| 20260509004213 | 72 | 170 | 2.0 | 6.0 | 0.00 | 0.00 | 0.00 | 71 | 1006.9 |
| 20260509003713 | 72 | 127 | 3.0 | 7.0 | 0.00 | 0.00 | 0.00 | 70 | 1006.8 |
| 20260509003148 | 73 | 128 | 3.0 | 7.0 | 0.00 | 0.00 | 0.00 | 70 | 1006.7 |
| 20260509002845 | 73 | 195 | 2.0 | 7.0 | 0.00 | 0.00 | 0.00 | 70 | 1006.8 |
| 20260509002052 | 73 | 153 | 3.0 | 11.0 | 0.00 | 0.00 | 0.00 | 69 | 1006.9 |
| 20260509001551 | 73 | 223 | 3.0 | 11.0 | 0.00 | 0.00 | 0.00 | 69 | 1006.9 |
| 20260509001244 | 73 | 203 | 2.0 | 6.0 | 0.00 | 0.00 | 0.00 | 69 | 1007.0 |
| 20260509000454 | 73 | 159 | 2.0 | 7.0 | 0.00 | 0.00 | 0.00 | 68 | 1007.1 |
| 20260508235951 | 73 | 127 | 2.0 | 7.0 | 0.00 | 0.00 | 0.00 | 67 | 1007.2 |
| 20260508235424 | 73 | 110 | 2.0 | 6.0 | 0.00 | 0.00 | 0.00 | 67 | 1007.2 |
| 20260508234922 | 73 | 143 | 2.0 | 5.0 | 0.00 | 0.00 | 0.00 | 66 | 1007.2 |
| 20260508234354 | 74 | 185 | 1.0 | 5.0 | 0.00 | 0.00 | 0.00 | 65 | 1007.3 |
| 20260508233852 | 74 | 113 | 2.0 | 7.0 | 0.00 | 0.00 | 0.00 | 65 | 1007.3 |
| 20260508233350 | 74 | 146 | 3.0 | 8.0 | 0.00 | 0.00 | 0.00 | 64 | 1007.3 |
| 20260508232827 | 74 | 80 | 2.0 | 8.0 | 0.00 | 0.00 | 0.00 | 64 | 1007.3 |
| 20260508232314 | 75 | 110 | 2.0 | 8.0 | 0.00 | 0.00 | 0.00 | 64 | 1007.4 |
| 20260508231814 | 75 | 164 | 2.0 | 6.0 | 0.00 | 0.00 | 0.00 | 63 | 1007.4 |
| 20260508231507 | 75 | 181 | 3.0 | 8.0 | 0.00 | 0.00 | 0.00 | 65 | 1007.4 |
| 20260508230746 | 74 | 226 | 4.0 | 8.0 | 0.00 | 0.00 | 0.00 | 64 | 1007.4 |
| 20260508230242 | 74 | 149 | 4.0 | 9.0 | 0.00 | 0.00 | 0.00 | 64 | 1007.4 |
| 20260508225721 | 74 | 240 | 4.0 | 9.0 | 0.00 | 0.00 | 0.00 | 65 | 1007.5 |
| 20260508225224 | 74 | 229 | 4.0 | 9.0 | 0.00 | 0.00 | 0.00 | 64 | 1007.5 |
| 20260508224658 | 75 | 193 | 5.0 | 10.0 | 0.00 | 0.00 | 0.00 | 63 | 1007.5 |
| 20260508224135 | 75 | 210 | 5.0 | 12.0 | 0.00 | 0.00 | 0.00 | 63 | 1007.4 |
| 20260508223609 | 75 | 211 | 5.0 | 12.0 | 0.00 | 0.00 | 0.00 | 62 | 1007.3 |
| 20260508223339 | 76 | 227 | 5.0 | 9.0 | 0.00 | 0.00 | 0.00 | 63 | 1007.3 |
| 20260508222838 | 76 | 234 | 4.0 | 13.0 | 0.00 | 0.00 | 0.00 | 62 | 1007.3 |
| 20260508222053 | 77 | 233 | 4.0 | 10.0 | 0.00 | 0.00 | 0.00 | 64 | 1007.3 |
| 20260508221552 | 76 | 143 | 5.0 | 10.0 | 0.00 | 0.00 | 0.00 | 63 | 1007.2 |
| 20260508221317 | 76 | 238 | 5.0 | 10.0 | 0.00 | 0.00 | 0.00 | 63 | 1007.3 |
| 20260508220536 | 76 | 155 | 4.0 | 10.0 | 0.00 | 0.00 | 0.00 | 64 | 1007.2 |
| 20260508220035 | 76 | 203 | 4.0 | 8.0 | 0.00 | 0.00 | 0.00 | 64 | 1007.2 |
| 20260508215521 | 76 | 212 | 4.0 | 8.0 | 0.00 | 0.00 | 0.00 | 65 | 1007.2 |
| 20260508215023 | 76 | 217 | 4.0 | 7.0 | 0.00 | 0.00 | 0.00 | 65 | 1007.2 |
| 20260508214459 | 76 | 226 | 4.0 | 9.0 | 0.00 | 0.00 | 0.00 | 64 | 1007.1 |
| 20260508213935 | 76 | 153 | 4.0 | 9.0 | 0.00 | 0.00 | 0.00 | 65 | 1007.1 |
| 20260508213411 | 76 | 128 | 3.0 | 8.0 | 0.00 | 0.00 | 0.00 | 64 | 1007.0 |
| 20260508213334 | 76 | 207 | 3.0 | 8.0 | 0.00 | 0.00 | 0.00 | 65 | 1007.0 |
| 20260508212350 | 75 | 179 | 3.0 | 8.0 | 0.00 | 0.00 | 0.00 | 69 | 1007.1 |
| 20260508212116 | 73 | 106 | 3.0 | 7.0 | 0.00 | 0.00 | 0.00 | 71 | 1007.5 |
| 20260508211328 | 73 | 124 | 2.0 | 6.0 | 0.00 | 0.00 | 0.00 | 68 | 1008.0 |
| 20260508210800 | 73 | 133 | 2.0 | 5.0 | 0.00 | 0.00 | 0.00 | 68 | 1008.1 |
| 20260508210303 | 73 | 220 | 2.0 | 7.0 | 0.00 | 0.00 | 0.00 | 68 | 1008.3 |
| 20260508205750 | 73 | 183 | 2.0 | 7.0 | 0.00 | 0.00 | 0.00 | 68 | 1008.6 |
| 20260508205509 | 73 | 122 | 3.0 | 7.0 | 0.00 | 0.00 | 0.00 | 68 | 1008.7 |
| 20260508205012 | 74 | 220 | 3.0 | 7.0 | 0.00 | 0.00 | 0.00 | 65 | 1008.9 |
| 20260508204227 | 74 | 192 | 3.0 | 7.0 | 0.00 | 0.00 | 0.00 | 64 | 1009.1 |
| 20260508203703 | 74 | 153 | 3.0 | 7.0 | 0.00 | 0.00 | 0.00 | 63 | 1009.2 |
| 20260508203143 | 74 | 149 | 2.0 | 7.0 | 0.00 | 0.00 | 0.00 | 63 | 1009.2 |
| 20260508202616 | 74 | 214 | 2.0 | 7.0 | 0.00 | 0.00 | 0.00 | 63 | 1009.3 |
| 20260508202117 | 74 | 231 | 2.0 | 7.0 | 0.00 | 0.00 | 0.00 | 62 | 1009.2 |
| 20260508201548 | 75 | 225 | 2.0 | 7.0 | 0.00 | 0.00 | 0.00 | 61 | 1009.2 |
| 20260508201048 | 75 | 225 | 3.0 | 8.0 | 0.00 | 0.00 | 0.00 | 62 | 1009.2 |
| 20260508200547 | 75 | 214 | 4.0 | 8.0 | 0.00 | 0.00 | 0.00 | 61 | 1009.2 |
| 20260508200044 | 76 | 183 | 3.0 | 9.0 | 0.00 | 0.00 | 0.00 | 60 | 1009.1 |
| 20260508195520 | 76 | 194 | 4.0 | 9.0 | 0.00 | 0.00 | 0.00 | 59 | 1009.2 |
| 20260508195235 | 76 | 224 | 3.0 | 9.0 | 0.00 | 0.00 | 0.00 | 58 | 1009.2 |
| 20260508194455 | 77 | 143 | 3.0 | 9.0 | 0.00 | 0.00 | 0.00 | 59 | 1009.3 |
| 20260508193950 | 77 | 237 | 5.0 | 12.0 | 0.00 | 0.00 | 0.00 | 60 | 1009.3 |
| 20260508193446 | 77 | 139 | 5.0 | 12.0 | 0.00 | 0.00 | 0.00 | 58 | 1009.3 |
| 20260508192943 | 77 | 134 | 5.0 | 13.0 | 0.00 | 0.00 | 0.00 | 59 | 1009.3 |
| 20260508192923 | 77 | 154 | 5.0 | 13.0 | 0.00 | 0.00 | 0.00 | 58 | 1009.3 |
| 20260508191916 | 77 | 235 | 5.0 | 10.0 | 0.00 | 0.00 | 0.00 | 59 | 1009.3 |
| 20260508191347 | 77 | 196 | 5.0 | 11.0 | 0.00 | 0.00 | 0.00 | 58 | 1009.4 |
| 20260508190849 | 77 | 157 | 4.0 | 11.0 | 0.00 | 0.00 | 0.00 | 57 | 1009.5 |
| 20260508190322 | 77 | 129 | 3.0 | 9.0 | 0.00 | 0.00 | 0.00 | 57 | 1009.5 |
| 20260508190015 | 78 | 108 | 3.0 | 9.0 | 0.00 | 0.00 | 0.00 | 60 | 1009.6 |
| 20260508185249 | 77 | 129 | 4.0 | 9.0 | 0.00 | 0.00 | 0.00 | 59 | 1009.6 |
| 20260508184747 | 77 | 117 | 4.0 | 10.0 | 0.00 | 0.00 | 0.00 | 58 | 1009.7 |
| 20260508184245 | 77 | 98 | 4.0 | 10.0 | 0.00 | 0.00 | 0.00 | 57 | 1009.8 |
| 20260508183742 | 77 | 169 | 4.0 | 9.0 | 0.00 | 0.00 | 0.00 | 60 | 1009.6 |
| 20260508183238 | 77 | 150 | 3.0 | 9.0 | 0.00 | 0.00 | 0.00 | 56 | 1009.9 |
| 20260508182736 | 77 | 90 | 3.0 | 7.0 | 0.00 | 0.00 | 0.00 | 57 | 1010.0 |
| 20260508182233 | 77 | 124 | 2.0 | 8.0 | 0.00 | 0.00 | 0.00 | 56 | 1010.1 |
| 20260508181731 | 77 | 162 | 2.0 | 7.0 | 0.00 | 0.00 | 0.00 | 60 | 1010.1 |
| 20260508181229 | 77 | 122 | 3.0 | 6.0 | 0.00 | 0.00 | 0.00 | 60 | 1010.2 |
| 20260508180706 | 77 | 152 | 2.0 | 8.0 | 0.00 | 0.00 | 0.00 | 56 | 1010.3 |
| 20260508180137 | 76 | 90 | 3.0 | 9.0 | 0.00 | 0.00 | 0.00 | 59 | 1010.4 |
| 20260508175611 | 76 | 223 | 4.0 | 9.0 | 0.00 | 0.00 | 0.00 | 57 | 1010.5 |
| 20260508175047 | 76 | 153 | 4.0 | 11.0 | 0.00 | 0.00 | 0.00 | 59 | 1010.7 |
| 20260508174519 | 76 | 119 | 3.0 | 11.0 | 0.00 | 0.00 | 0.00 | 57 | 1010.7 |
| 20260508173951 | 76 | 257 | 4.0 | 9.0 | 0.00 | 0.00 | 0.00 | 61 | 1010.7 |
| 20260508173447 | 75 | 123 | 3.0 | 9.0 | 0.00 | 0.00 | 0.00 | 57 | 1010.8 |
| 20260508172918 | 75 | 214 | 2.0 | 9.0 | 0.00 | 0.00 | 0.00 | 60 | 1010.8 |
| 20260508172419 | 75 | 150 | 2.0 | 8.0 | 0.00 | 0.00 | 0.00 | 62 | 1010.9 |
| 20260508171919 | 74 | 159 | 3.0 | 8.0 | 0.00 | 0.00 | 0.00 | 59 | 1011.0 |
| 20260508171354 | 73 | 191 | 3.0 | 8.0 | 0.00 | 0.00 | 0.00 | 61 | 1011.2 |
| 20260508170825 | 73 | 120 | 3.0 | 7.0 | 0.00 | 0.00 | 0.00 | 62 | 1011.4 |
| 20260508170321 | 73 | 116 | 3.0 | 7.0 | 0.00 | 0.00 | 0.00 | 61 | 1011.6 |
| 20260508170019 | 73 | 124 | 3.0 | 7.0 | 0.00 | 0.00 | 0.00 | 62 | 1011.7 |
| 20260508165257 | 73 | 104 | 3.0 | 7.0 | 0.00 | 0.00 | 0.00 | 61 | 1012.0 |
| 20260508164952 | 72 | 143 | 3.0 | 8.0 | 0.00 | 0.00 | 0.00 | 62 | 1012.1 |
| 20260508164446 | 72 | 114 | 2.0 | 8.0 | 0.00 | 0.00 | 0.00 | 62 | 1012.1 |
| 20260508163657 | 72 | 113 | 2.0 | 8.0 | 0.00 | 0.00 | 0.00 | 64 | 1012.3 |
| 20260508163156 | 71 | 131 | 3.0 | 8.0 | 0.00 | 0.00 | 0.00 | 63 | 1012.4 |
| 20260508162627 | 71 | 205 | 3.0 | 8.0 | 0.00 | 0.00 | 0.00 | 62 | 1012.5 |
| 20260508162126 | 71 | 216 | 3.0 | 8.0 | 0.00 | 0.00 | 0.00 | 61 | 1012.5 |
| 20260508161558 | 71 | 121 | 4.0 | 9.0 | 0.00 | 0.00 | 0.00 | 62 | 1012.5 |
| 20260508161056 | 71 | 221 | 3.0 | 9.0 | 0.00 | 0.00 | 0.00 | 61 | 1012.6 |
| 20260508160527 | 71 | 108 | 3.0 | 9.0 | 0.00 | 0.00 | 0.00 | 62 | 1012.6 |
| 20260508160026 | 70 | 97 | 3.0 | 9.0 | 0.00 | 0.00 | 0.00 | 61 | 1012.7 |
| 20260508155521 | 70 | 229 | 4.0 | 9.0 | 0.00 | 0.00 | 0.00 | 62 | 1012.8 |
| 20260508155021 | 70 | 252 | 4.0 | 9.0 | 0.00 | 0.00 | 0.00 | 63 | 1012.8 |
| 20260508154453 | 70 | 160 | 3.0 | 8.0 | 0.00 | 0.00 | 0.00 | 62 | 1012.8 |
| 20260508153948 | 69 | 129 | 2.0 | 8.0 | 0.00 | 0.00 | 0.00 | 63 | 1013.0 |
| 20260508153447 | 69 | 150 | 2.0 | 5.0 | 0.00 | 0.00 | 0.00 | 67 | 1012.9 |
| 20260508152919 | 68 | 124 | 2.0 | 5.0 | 0.00 | 0.00 | 0.00 | 66 | 1012.9 |
| 20260508152900 | 68 | 172 | 2.0 | 5.0 | 0.00 | 0.00 | 0.00 | 65 | 1013.1 |
| 20260508151849 | 68 | 126 | 3.0 | 7.0 | 0.00 | 0.00 | 0.00 | 65 | 1013.2 |
| 20260508151613 | 68 | 210 | 2.0 | 7.0 | 0.00 | 0.00 | 0.00 | 65 | 1013.1 |
| 20260508151102 | 68 | 158 | 3.0 | 7.0 | 0.00 | 0.00 | 0.00 | 66 | 1013.1 |
| 20260508150341 | 68 | 240 | 3.0 | 7.0 | 0.00 | 0.00 | 0.00 | 64 | 1013.0 |
| 20260508145813 | 68 | 162 | 2.0 | 6.0 | 0.00 | 0.00 | 0.00 | 64 | 1013.0 |
| 20260508145312 | 68 | 154 | 2.0 | 5.0 | 0.00 | 0.00 | 0.00 | 64 | 1012.9 |
| 20260508144746 | 68 | 176 | 3.0 | 5.0 | 0.00 | 0.00 | 0.00 | 65 | 1012.9 |
| 20260508144217 | 67 | 158 | 3.0 | 8.0 | 0.00 | 0.00 | 0.00 | 66 | 1012.9 |
| 20260508143715 | 67 | 161 | 3.0 | 8.0 | 0.00 | 0.00 | 0.00 | 65 | 1013.1 |
| 20260508143148 | 67 | 176 | 3.0 | 9.0 | 0.00 | 0.00 | 0.00 | 66 | 1013.1 |
| 20260508142906 | 67 | 113 | 3.0 | 9.0 | 0.00 | 0.00 | 0.00 | 65 | 1013.1 |
| 20260508142118 | 67 | 227 | 4.0 | 8.0 | 0.00 | 0.00 | 0.00 | 66 | 1013.2 |
| 20260508141844 | 67 | 153 | 4.0 | 9.0 | 0.00 | 0.00 | 0.00 | 66 | 1013.3 |
| 20260508141049 | 67 | 177 | 3.0 | 9.0 | 0.00 | 0.00 | 0.00 | 66 | 1013.4 |
| 20260508140548 | 67 | 172 | 2.0 | 7.0 | 0.00 | 0.00 | 0.00 | 68 | 1013.3 |
| 20260508140019 | 67 | 146 | 3.0 | 7.0 | 0.00 | 0.00 | 0.00 | 70 | 1013.3 |
| 20260508135518 | 66 | 124 | 3.0 | 7.0 | 0.00 | 0.00 | 0.00 | 68 | 1013.3 |
| 20260508135208 | 66 | 176 | 2.0 | 7.0 | 0.00 | 0.00 | 0.00 | 69 | 1013.3 |
| 20260508134449 | 66 | 132 | 1.0 | 5.0 | 0.00 | 0.00 | 0.00 | 72 | 1013.3 |
| 20260508134155 | 65 | 120 | 1.0 | 5.0 | 0.00 | 0.00 | 0.00 | 72 | 1013.1 |
| 20260508133425 | 64 | 134 | 1.0 | 4.0 | 0.00 | 0.00 | 0.00 | 77 | 1013.1 |
| 20260508132924 | 64 | 157 | 1.0 | 3.0 | 0.00 | 0.00 | 0.00 | 77 | 1013.2 |
| 20260508132356 | 63 | 153 | 1.0 | 3.0 | 0.00 | 0.00 | 0.00 | 77 | 1013.4 |
| 20260508131853 | 63 | 146 | 1.0 | 4.0 | 0.00 | 0.00 | 0.00 | 78 | 1013.5 |
| 20260508131614 | 62 | 133 | 1.0 | 4.0 | 0.00 | 0.00 | 0.00 | 79 | 1013.5 |
| 20260508130826 | 62 | 126 | 0.0 | 3.0 | 0.00 | 0.00 | 0.00 | 83 | 1013.3 |
| 20260508130258 | 62 | 136 | 0.0 | 2.0 | 0.00 | 0.00 | 0.00 | 84 | 1013.4 |
| 20260508125230 | 62 | 146 | 0.0 | 0.0 | 0.00 | 0.00 | 0.00 | 86 | 1013.4 |
| 20260508124701 | 61 | 145 | 0.0 | 0.0 | 0.00 | 0.00 | 0.00 | 86 | 1013.5 |
| 20260508124201 | 61 | 146 | 0.0 | 0.0 | 0.00 | 0.00 | 0.00 | 86 | 1013.6 |
| 20260508123631 | 61 | 145 | 0.0 | 0.0 | 0.00 | 0.00 | 0.00 | 86 | 1013.7 |
| 20260508123359 | 60 | 145 | 0.0 | 0.0 | 0.00 | 0.00 | 0.00 | 86 | 1013.7 |
| 20260508122604 | 60 | 146 | 0.0 | 0.0 | 0.00 | 0.00 | 0.00 | 86 | 1013.6 |
| 20260508122100 | 60 | 146 | 0.0 | 0.0 | 0.00 | 0.00 | 0.00 | 86 | 1013.5 |
| 20260508121533 | 60 | 145 | 0.0 | 0.0 | 0.00 | 0.00 | 0.00 | 86 | 1013.5 |
| 20260508121028 | 60 | 145 | 0.0 | 0.0 | 0.00 | 0.00 | 0.00 | 86 | 1013.5 |
| 20260508120526 | 60 | 145 | 0.0 | 0.0 | 0.00 | 0.00 | 0.00 | 86 | 1013.5 |
| 20260508115957 | 60 | 145 | 0.0 | 0.0 | 0.00 | 0.00 | 0.00 | 86 | 1013.6 |
| 20260508115456 | 60 | 146 | 0.0 | 0.0 | 0.00 | 0.00 | 0.00 | 86 | 1013.4 |
| 20260508115148 | 60 | 146 | 0.0 | 0.0 | 0.00 | 0.00 | 0.00 | 86 | 1013.6 |
| 20260508114423 | 60 | 146 | 0.0 | 2.0 | 0.00 | 0.00 | 0.00 | 86 | 1013.6 |
| 20260508113902 | 60 | 146 | 0.0 | 3.0 | 0.00 | 0.00 | 0.00 | 86 | 1013.4 |
| 20260508113333 | 60 | 117 | 0.0 | 3.0 | 0.00 | 0.00 | 0.00 | 86 | 1013.5 |
| 20260508112831 | 60 | 129 | 1.0 | 3.0 | 0.00 | 0.00 | 0.00 | 86 | 1013.6 |
| 20260508112527 | 60 | 120 | 1.0 | 3.0 | 0.00 | 0.00 | 0.00 | 86 | 1013.6 |
| 20260508111804 | 60 | 133 | 0.0 | 1.0 | 0.00 | 0.00 | 0.00 | 86 | 1013.8 |
| 20260508111307 | 60 | 339 | 0.0 | 0.0 | 0.00 | 0.00 | 0.00 | 85 | 1013.9 |
| 20260508110746 | 60 | 339 | 0.0 | 2.0 | 0.00 | 0.00 | 0.00 | 85 | 1014.1 |
| 20260508110726 | 60 | 339 | 1.0 | 4.0 | 0.00 | 0.00 | 0.00 | 85 | 1014.3 |
| 20260508105739 | 60 | 334 | 1.0 | 4.0 | 0.00 | 0.00 | 0.00 | 84 | 1014.2 |
| 20260508105219 | 60 | 319 | 0.0 | 0.0 | 0.00 | 0.00 | 0.00 | 84 | 1013.9 |
| 20260508104659 | 60 | 262 | 0.0 | 1.0 | 0.00 | 0.00 | 0.00 | 84 | 1013.5 |
| 20260508104159 | 60 | 262 | 0.0 | 2.0 | 0.00 | 0.00 | 0.00 | 83 | 1013.1 |
| 20260508103654 | 60 | 153 | 0.0 | 2.0 | 0.00 | 0.00 | 0.00 | 83 | 1012.9 |
| 20260508103129 | 60 | 259 | 0.0 | 1.0 | 0.00 | 0.00 | 0.00 | 83 | 1012.7 |
| 20260508102631 | 60 | 259 | 0.0 | 1.0 | 0.00 | 0.00 | 0.00 | 84 | 1012.6 |
| 20260508102128 | 60 | 259 | 0.0 | 2.0 | 0.00 | 0.00 | 0.00 | 84 | 1012.6 |
| 20260508101629 | 60 | 259 | 0.0 | 2.0 | 0.00 | 0.00 | 0.00 | 85 | 1012.5 |
| 20260508101333 | 60 | 237 | 0.0 | 2.0 | 0.00 | 0.00 | 0.00 | 86 | 1012.5 |
| 20260508100605 | 60 | 231 | 0.0 | 0.0 | 0.00 | 0.00 | 0.00 | 86 | 1012.5 |
| 20260508100049 | 60 | 231 | 0.0 | 0.0 | 0.00 | 0.00 | 0.00 | 85 | 1012.6 |
| 20260508095541 | 60 | 231 | 0.0 | 0.0 | 0.00 | 0.00 | 0.00 | 85 | 1012.5 |
| 20260508095306 | 60 | 231 | 0.0 | 0.0 | 0.00 | 0.00 | 0.00 | 85 | 1012.6 |
| 20260508094549 | 60 | 231 | 0.0 | 0.0 | 0.00 | 0.00 | 0.00 | 85 | 1012.7 |
| 20260508094538 | 60 | 231 | 0.0 | 0.0 | 0.00 | 0.00 | 0.00 | 85 | 1012.7 |
| 20260508094226 | 60 | 231 | 0.0 | 0.0 | 0.00 | 0.00 | 0.00 | 85 | 1012.8 |
| 20260508092948 | 60 | 231 | 0.0 | 0.0 | 0.00 | 0.00 | 0.00 | 85 | 1012.8 |
| 20260508092449 | 60 | 231 | 0.0 | 0.0 | 0.00 | 0.00 | 0.00 | 85 | 1012.8 |
| 20260508091933 | 60 | 231 | 0.0 | 0.0 | 0.00 | 0.00 | 0.00 | 85 | 1012.7 |
| 20260508091435 | 61 | 231 | 0.0 | 0.0 | 0.00 | 0.00 | 0.00 | 85 | 1012.8 |
| 20260508090907 | 60 | 231 | 0.0 | 2.0 | 0.00 | 0.00 | 0.00 | 85 | 1012.8 |
| 20260508090350 | 60 | 231 | 0.0 | 1.0 | 0.00 | 0.00 | 0.00 | 85 | 1012.9 |
| 20260508090330 | 60 | 121 | 1.0 | 5.0 | 0.00 | 0.00 | 0.00 | 85 | 1012.7 |
| 20260508085321 | 60 | 165 | 2.0 | 5.0 | 0.00 | 0.00 | 0.00 | 86 | 1012.7 |
| 20260508084821 | 60 | 131 | 2.0 | 5.0 | 0.00 | 0.00 | 0.00 | 86 | 1012.7 |
| 20260508084322 | 60 | 147 | 2.0 | 5.0 | 0.00 | 0.00 | 0.00 | 86 | 1012.7 |
| 20260508083801 | 60 | 141 | 1.0 | 4.0 | 0.00 | 0.00 | 0.00 | 86 | 1013.2 |
| 20260508083300 | 60 | 278 | 0.0 | 0.0 | 0.00 | 0.00 | 0.00 | 86 | 1013.7 |
| 20260508083025 | 60 | 278 | 0.0 | 0.0 | 0.00 | 0.00 | 0.00 | 84 | 1013.7 |
| 20260508082306 | 60 | 278 | 0.0 | 0.0 | 0.00 | 0.00 | 0.00 | 84 | 1013.8 |
| 20260508081737 | 60 | 278 | 0.0 | 0.0 | 0.00 | 0.00 | 0.00 | 84 | 1013.7 |
| 20260508081209 | 61 | 278 | 0.0 | 0.0 | 0.00 | 0.00 | 0.00 | 84 | 1014.1 |
| 20260508080639 | 61 | 278 | 0.0 | 0.0 | 0.00 | 0.00 | 0.00 | 83 | 1014.2 |
| 20260508080116 | 61 | 274 | 0.0 | 0.0 | 0.00 | 0.00 | 0.00 | 84 | 1014.2 |
| 20260508075612 | 60 | 274 | 0.0 | 1.0 | 0.00 | 0.00 | 0.00 | 83 | 1014.3 |
| 20260508075111 | 60 | 274 | 0.0 | 1.0 | 0.00 | 0.00 | 0.00 | 84 | 1014.4 |
| 20260508074550 | 60 | 150 | 0.0 | 0.0 | 0.00 | 0.00 | 0.00 | 84 | 1013.9 |
| 20260508074253 | 60 | 150 | 0.0 | 0.0 | 0.00 | 0.00 | 0.00 | 84 | 1013.6 |
| 20260508073524 | 60 | 150 | 0.0 | 0.0 | 0.00 | 0.00 | 0.00 | 84 | 1013.6 |
| 20260508073020 | 60 | 150 | 0.0 | 0.0 | 0.00 | 0.00 | 0.00 | 84 | 1013.7 |
| 20260508072514 | 59 | 150 | 0.0 | 0.0 | 0.00 | 0.00 | 0.00 | 85 | 1013.7 |
| 20260508071947 | 59 | 150 | 0.0 | 0.0 | 0.00 | 0.00 | 0.00 | 85 | 1013.7 |
| 20260508071422 | 59 | 150 | 0.0 | 0.0 | 0.00 | 0.00 | 0.00 | 85 | 1013.7 |
| 20260508070852 | 59 | 150 | 0.0 | 0.0 | 0.00 | 0.00 | 0.00 | 84 | 1013.8 |
| 20260508070351 | 59 | 150 | 0.0 | 0.0 | 0.00 | 0.00 | 0.00 | 84 | 1013.8 |
| 20260508065846 | 59 | 150 | 0.0 | 0.0 | 0.00 | 0.00 | 0.00 | 84 | 1013.8 |
| 20260508065339 | 59 | 150 | 0.0 | 0.0 | 0.00 | 0.00 | 0.00 | 84 | 1014.0 |
| 20260508065106 | 59 | 150 | 0.0 | 0.0 | 0.00 | 0.00 | 0.00 | 84 | 1014.2 |
| 20260508064313 | 59 | 150 | 0.0 | 0.0 | 0.00 | 0.00 | 0.00 | 84 | 1014.2 |
| 20260508064010 | 59 | 150 | 0.0 | 0.0 | 0.00 | 0.00 | 0.00 | 84 | 1014.2 |
| 20260508063238 | 59 | 150 | 0.0 | 0.0 | 0.00 | 0.00 | 0.00 | 84 | 1014.4 |